User: anonymous   Login
Location: Unspecified
(0.0000°N, 0.0000°E)
Time: 03:45:01
(UTC+00:00)
Language:

FALCONSAT 3 - Orbit

View from above orbital plane
View from above orbital plane
View from above satellite
View from above satellite

Ground track
Ground track

The orbit data is extracted from the following two-line orbital elements,

1 30776U 07006E   19016.34252706  .00001678  00000-0  49072-4 0  9990
2 30776  35.4366 348.8443 0002694 182.0399 178.0317 15.35466529657099
Epoch (UTC): 16 January 2019 08:13:14
Eccentricity: 0.0002694
inclination: 35.4366°
perigee height: 458 km
apogee height: 461 km
right ascension of ascending node: 348.8443°
argument of perigee: 182.0399°
revolutions per day: 15.35466529
mean anomaly at epoch: 178.0317°
orbit number at epoch: 65709

The dashed part of the orbit path shows where the satellite is in the earth's shadow,  

DLR